Flag for Germany Weather past 2 weeks in Bühl, Baden-Württemberg, Germany

Now
64 °F

Rain showers. Broken clouds.


Feels Like: 64 °F
Forecast: 53 / 70 °F
Wind: 6 mph from West

Location: Karlsruhe - Baden Wurttemberg

Current Time: Sep 1, 2015 at 6:57:14 PM

Latest Report: Sep 1, 2015 at 6:20 PM


Visibility: 5 mi

Pressure: 29.98 "Hg

Humidity: 88%

Dew point: 61 °F

Location of BühlLocation

Historic Weather in Bühl — Graph

°F

Bühl temperature yesterday

Maximum temperature yesterday: 93 °F (at 2:50 PM)
Minimum temperature yesterday: 64 °F (at 6:50 AM)
Average temperature yesterday: 81 °F

Past Weeks' High & Low Weather Summary

 TemperatureHumidityPressure
High93 °F (Aug 30, 4:20 PM)94% (Aug 18, 4:50 AM)30.24 "Hg (Aug 18, 4:50 AM)
Low48 °F (Aug 18, 5:50 AM)19% (Aug 31, 3:20 PM)29.68 "Hg (Aug 24, 7:20 AM)
Average69 °F60%30.00 "Hg
* Reported Aug 17 5:20 PM — Sep 1 5:20 PM, Bühl, Weather by CustomWeather, © 2015

Note: Actual official high and low records may vary slightly from our data, if they occured in-between our weather recording intervals... More about our weather records

Advertising

Bühl weather history for previous 24 hours

 ConditionsComfort  
Time TempWeatherWind HumidityBarometerVisibility
5:20 PM
Tue, Sep 1
66 °FSprinkles. Partly sunny.2 mph88%29.95 "Hg5 mi
4:50 PM66 °FSprinkles. Broken clouds.8 mph83%29.95 "Hg5 mi
4:20 PM66 °FScattered showers. Broken clouds.6 mph83%29.95 "Hg5 mi
3:50 PM66 °FScattered showers. Broken clouds.6 mph83%29.92 "Hg5 mi
3:20 PM66 °FRain showers. Partly sunny.8 mph83%29.92 "Hg4 mi
2:50 PM66 °FRain showers. Partly sunny.8 mph83%29.89 "Hg4 mi
2:20 PM70 °FScattered showers. Partly sunny.10 mph64%29.86 "HgN/A
1:50 PM73 °FScattered showers. Broken clouds.10 mph61%29.86 "HgN/A
1:20 PM73 °FPartly sunny.13 mph61%29.83 "HgN/A
12:50 PM79 °FPassing clouds.20 mph42%29.83 "HgN/A
12:20 PM81 °FSunny.21 mph39%29.80 "Hg10 mi
11:50 AM79 °FSunny.22 mph42%29.80 "Hg10 mi
11:20 AM79 °FSunny.16 mph39%29.80 "Hg10 mi
10:50 AM77 °FPassing clouds.8 mph51%29.80 "HgN/A
10:20 AM75 °FPassing clouds.6 mph50%29.80 "HgN/A
9:50 AM72 °FSunny.1 mph65%29.80 "Hg10 mi
9:20 AM70 °FSunny.3 mph69%29.80 "Hg10 mi
8:50 AM70 °FSunny.2 mph69%29.80 "Hg10 mi
8:20 AM68 °FSunny.No wind78%29.80 "Hg10 mi
7:50 AM66 °FSunny.1 mph78%29.77 "Hg10 mi
7:20 AM64 °FScattered showers. Clear.2 mph78%29.77 "HgN/A
6:50 AM64 °FClear.5 mph78%29.80 "Hg10 mi
5:20 AM68 °FClear.1 mph69%29.83 "Hg10 mi
4:50 AM66 °FClear.3 mph73%29.83 "Hg10 mi
11:20 PM
Mon, Aug 31
77 °FClear.3 mph44%29.86 "Hg10 mi
10:50 PM81 °FClear.6 mph39%29.83 "Hg10 mi
10:20 PM79 °FClear.7 mph42%29.83 "Hg10 mi
9:50 PM79 °FClear.6 mph42%29.83 "Hg10 mi
9:20 PM79 °FClear.6 mph39%29.83 "Hg10 mi
8:50 PM81 °FSunny.5 mph37%29.83 "Hg10 mi
8:20 PM84 °FPassing clouds.5 mph31%29.83 "HgN/A
7:50 PM86 °FSunny.6 mph29%29.83 "Hg10 mi
7:20 PM90 °FPassing clouds.8 mph24%29.83 "HgN/A
6:50 PM91 °FPassing clouds.13 mph21%29.83 "HgN/A
6:20 PM93 °FPassing clouds.13 mph20%29.83 "HgN/A
Weather by CustomWeather, © 2015

See weather overviewHow to use our weather pages